Regional Weather Roundup
Issued by NWS San Angelo, TX

Home | Current Version | Previous Version | Text Only | Print | Product List | Glossary On
Versions: 1 2 3 4 5 6 7 8 9 10 11 12 13 14 15 16 17 18 19 20 21 22 23 24 25 26 27 28 29 30 31 32 33 34 35 36 37 38 39 40 41 42 43 44 45 46 47 48 49 50
000
ASUS44 KSJT 090611
RWRSJT
WEST CENTRAL TEXAS REGIONAL WEATHER ROUNDUP
NATIONAL WEATHER SERVICE SAN ANGELO TX
1200 AM CST TUE FEB 09 2016

NOTE: "FAIR" INDICATES FEW OR NO CLOUDS BELOW 12,000 FEET WITH NO
SIGNIFICANT WEATHER AND/OR OBSTRUCTIONS TO VISIBILITY.

TXZ049-054-064>066-071>073-076>078-098-099-113-114-127-128-139-140-
154-155-168>170-090700
...LOCATIONS ACROSS WEST CENTRAL TEXAS...

CITY           SKY/WX    TMP DP  RH WIND       PRES   REMARKS
SAN ANGELO     CLEAR     37  17  44 W9        30.39R WCI  30
ABILENE        PTCLDY    37  19  48 W6        30.36S WCI  32
DYESS AFB      CLEAR     39  17  40 W9        30.35S WCI  33
JUNCTION       CLEAR     34  20  56 W6        30.38S WCI  29
SWEETWATER     CLEAR     46  16  30 W7        30.40S
BROWNWOOD      NOT AVBL
COLEMAN        PTCLDY    40  16  37 W8        30.36S WCI  34
SONORA         CLEAR     30  19  64 CALM      30.44S
OZONA          FAIR      32  19  59 NE3       30.44S
BRADY          NOT AVBL
$$

TEXAS PANHANDLE/OKLAHOMA PANHANDLE

CITY           SKY/WX    TMP DP  RH WIND       PRES   REMARKS
AMARILLO       CLOUDY    29  19  66 W7        30.36F WCI  22
BORGER         CLEAR     34  21  59 W8        30.35F WCI  27
CANADIAN       CLEAR     31  17  57 SW3       30.33F
DALHART        CLOUDY    30  19  63 W10       30.37F WCI  21
DUMAS          CLOUDY    32  20  61 W10       30.35F WCI  24
GUYMON         NOT AVBL
HEREFORD       NOT AVBL
PAMPA          CLEAR     31  19  62 W7        30.33F WCI  24
PERRYTON       CLEAR     27  19  69 W8        30.31F WCI  19
$$

SOUTHERN PANHANDLE/SOUTH PLAINS/ROLLING PLAINS

CITY           SKY/WX    TMP DP  RH WIND       PRES   REMARKS
LUBBOCK        CLOUDY    30  18  60 W7        30.38F WCI  23
SNYDER           N/A     39  20  46 NW7       30.39F WCI  34
CHILDRESS      CLEAR     36  19  50 NW5       30.36R WCI  32
SEMINOLE       CLOUDY    34  17  50 W6        30.41S WCI  28
$$

PERMIAN BASIN

CITY           SKY/WX    TMP DP  RH WIND       PRES   REMARKS
MIDLAND        CLEAR     35  19  52 W9        30.41S WCI  28
ODESSA         CLEAR     38  16  40 W6        30.42S WCI  33
WINK           CLOUDY    32  14  47 N6        30.42S WCI  26
$$

FAR WEST/SOUTHWEST MOUNTAINS/TRANS PECOS

CITY           SKY/WX    TMP DP  RH WIND       PRES   REMARKS
ALPINE         CLOUDY    29  16  56 CALM      30.46R
DRYDEN           N/A     41  15  35 NW7       30.39S WCI  36
EL PASO        CLEAR     44  14  29 NE6       30.35F
FORT STOCKTON  CLOUDY    37  19  48 S8        30.42S WCI  31
GUADALUPE PASS CLOUDY    35  11  36 NE22      30.40S WCI  23
MARFA          CLOUDY    23  13  65 N9        30.42R WCI  13
PECOS          CLOUDY    30  17  56 NW3       30.44S
$$

DALLAS/FORT WORTH METROPLEX

CITY           SKY/WX    TMP DP  RH WIND       PRES   REMARKS
DFW AIRPORT    CLEAR     43   8  23 N13       30.28S WCI  36
FTW MEACHAM    CLEAR     40  10  29 NW9       30.30R WCI  34
DAL-EXECUTIVE  CLEAR     42   9  25 NW12      30.27S WCI  36
GRAND PRAIRIE  CLEAR     46   5  18 NW7       30.30F
ADDISON        CLEAR     44  16  32 NW8       30.30S WCI  39
MESQUITE       CLEAR     44   8  23 NW10      30.28F WCI  39
LANCASTER      CLEAR     40   6  24 NW9       30.29S WCI  34
$$

NORTH CENTRAL TEXAS

CITY           SKY/WX    TMP DP  RH WIND       PRES   REMARKS
SHRMAN/DENISON CLEAR     41  13  32 NW12      30.28S WCI  34
GAINESVILLE    CLEAR     38  11  33 W7        30.32R WCI  32
BRIDGEPORT     CLEAR     42  17  36 NW8       30.33S WCI  37
DENTON         CLEAR     38  12  34 NW9       30.30R WCI  31
WAXAHACHIE     CLEAR     36  16  43 W6        30.30R WCI  32
GRANBURY       CLEAR     38  13  36 CALM      30.33S
$$

WESTERN NORTH TEXAS

CITY           SKY/WX    TMP DP  RH WIND       PRES   REMARKS
WICHITA FALLS  CLEAR     37   9  31 NW12      30.33R WCI  29
VERNON         CLEAR     36   8  30 NW9       30.36R WCI  29
BRECKENRIDGE   CLEAR     39  17  39 W3        30.35S
COMANCHE       CLEAR     43  16  33 NW7       30.35R WCI  39
$$

CENTRAL AND SOUTH CENTRAL TEXAS

CITY           SKY/WX    TMP DP  RH WIND       PRES   REMARKS
AUSTIN/BERGSTM CLEAR     41  23  48 W7        30.34F WCI  36
WACO           CLEAR     37  17  44 W10       30.32R WCI  30
HILLSBORO      CLEAR     32  12  42 CALM      30.30S
TEMPLE         CLEAR     41  18  39 W5        30.34R WCI  38
KILLEEN-GRAY   CLEAR     48  12  23 VRB3      30.33R
FORT HOOD      CLEAR     42  15  33 NW7       30.32R WCI  38
GEORGETOWN     CLEAR     41  19  42 W9        30.34F WCI  35
LAGO VISTA     FAIR      47  18  31 W7        30.35S
SAN MARCOS     CLEAR     37  21  52 NW7       30.36S WCI  32
NEW BRAUNFELS  CLEAR     38  23  55 NW8       30.35R WCI  32
RANDOLPH AFB   CLOUDY    38  25  58 NW9       30.35S WCI  31
SAN ANTONIO    CLEAR     40  25  55 NW7       30.36S WCI  35
STINSON        PTCLDY    42  25  50 NW5       30.35S WCI  39
PLEASANTON     NOT AVBL
LA GRANGE      CLEAR     41  25  52 CALM      30.32F
GIDDINGS       CLEAR     44  18  35 W7        30.37F WCI  40
$$

EAST TEXAS

CITY           SKY/WX    TMP DP  RH WIND       PRES   REMARKS
PARIS          CLEAR     39  12  33 NW13      30.23R WCI  32
CLARKSVILLE    NOT AVBL
TYLER          CLEAR     40  14  34 NW7       30.24R WCI  35
LONGVIEW       CLEAR     42  14  32 NW14      30.20F WCI  35
PALESTINE      CLEAR     35  21  58 CALM      30.28S
NACOGDOCHES    CLEAR     39  12  33 NW6       30.23S WCI  35
$$

TEXAS HILL COUNTRY AND EDWARDS PLATEAU

CITY           SKY/WX    TMP DP  RH WIND       PRES   REMARKS
LLANO          CLEAR     36  21  55 CALM      30.41R
HORSESHOE BAY  FAIR      36  24  60 SW3       30.36S
KERRVILLE      CLEAR     32  24  72 CALM      30.38R
FREDERICKSBRG  CLEAR     33  20  59 CALM      30.36S
ROCKSPRINGS    CLEAR     41  19  42 CALM      30.40S
HONDO          PTCLDY    35  18  49 N8        30.39S WCI  29
UVALDE         CLEAR     40  24  53 NW3       30.39S
DEL RIO        PTCLDY    40  27  59 CALM      30.39S
$$

SOUTHEAST TEXAS

CITY           SKY/WX    TMP DP  RH WIND       PRES   REMARKS
COLLEGE STN    CLEAR     40  19  43 W5        30.32S WCI  37
CALDWELL       CLEAR     37  21  52 W5        30.36S WCI  34
CROCKETT       CLEAR     41  14  33 CALM      30.29S
BRENHAM        CLEAR     44  20  39 W6        30.33S
HUNTSVILLE     CLEAR     45  13  27 W5        30.28S
CONROE         PTCLDY    38  21  50 CALM      30.30R
HOUSTON BUSH   PTCLDY    45  16  31 W6        30.30R
HOUSTON HOBBY  PTCLDY    48  15  26 W7        30.30S
PERLAND        CLOUDY    46  19  34 W6        30.32S
WHARTON        PTCLDY    40  24  53 W5        30.35R WCI  37
$$

THE UPPER TEXAS COAST

CITY           SKY/WX    TMP DP  RH WIND       PRES   REMARKS
ORANGE         CLEAR     46  10  22 W6        30.27S
PORT ARTHUR    CLEAR     42  24  49 W7        30.27R WCI  38
GALVESTON      CLEAR     49  29  46 W12       30.32R
ANGLETON       CLOUDY    43  26  51 W3        30.33R
BAY CITY       CLOUDY    42  29  59 CALM      30.33F
$$

TEXAS COASTAL BEND, RIO GRANDE PLAINS DEEP SOUTH TEXAS

CITY           SKY/WX    TMP DP  RH WIND       PRES   REMARKS
VICTORIA       CLOUDY    40  29  64 NW8       30.35S WCI  34
BEEVILLE       FAIR      50  26  39 NW5       30.36S
ROCKPORT       PTCLDY    49  35  58 CALM      30.36R
PORT ARANSAS   CLOUDY    51  39  65 NW3       30.35S
PORT LAVACA    MOCLDY    44  25  48 W5        30.35F
CORPUS CHRISTI MOCLDY    47  23  38 W3        30.36S
KINGSVILLE NAS CLOUDY    47  32  56 W6        30.36F
COTULLA        CLOUDY    46  22  38 W6        30.38S
LAREDO         MOCLDY    53  22  29 W5        30.40R
BROWNSVILLE    CLOUDY    48  42  80 CALM      30.39S
PORT ISABEL    CLOUDY    49  40  71 SW3       30.37F
HEBBRONVILLE   NOT AVBL
MCALLEN        CLOUDY    51  41  68 CALM      30.39F
WESLACO        PTCLDY    52  33  48 CALM      30.38F
FALFURRIAS     CLOUDY    49  28  44 W3        30.38S
EDINBURG       CLOUDY    51  33  50 CALM      30.38F
$$



USA.gov is the U.S. government's official web portal to all federal, state and local government web resources and services.